Погода в Старой Рязани

Россия / Рязанская область     54°24′10″N   40°25′25″E
темп.,
°C
ветер,
м/с
пор.,
м/с
влажн.,
%
обл.,
%
осадки,
мм/ч
давл.,
гПа
погр.,
м
13 мая, чт
чт1300:00+10ю359185 0.0 1020266
03:00+7юв12955 0.0 102111
06:00+8в24935 0.0 1021124
09:00+14вюв3473100 0.0 1020464
12:00+18в445798 0.0 1018761
15:00+19ю455792 0.0 10171207
18:00+19юв12645 0.0 1016519
21:00+13ююв2277100 0.0 101711
14 мая, пт
пт1400:00+12юв22822 0.0 101717
03:00+11юв3485100 0.0 101861
06:00+12юв2584100 0.0 1018126
09:00+17юв477148 0.2 1018368
12:00+22юв565879 0.0 10171101
15:00+23юв586397 0.0 10151320
18:00+20юв41080100 0.0 1014238
21:00+17юв4118797 0.3 1013184
15 мая, сб
сб1500:00+16ююв3593100 0.4 101280
03:00+15ююв229489 0.4 101214
06:00+16в3493100 0.0 1011115
09:00+20ю5878100 0.0 1011604
12:00+22ююз71076100 1.1 10121096
15:00+22ю610707 1.6 10121072
18:00+20ююз58793 1.2 1012618
21:00+16ююз33904 1.5 101329
16 мая, вс
вс1600:00+15ююз33925 0.0 101339
03:00+13ююз34920 0.0 101451
06:00+14юз259089 0.0 1015132
09:00+19ююз3572100 0.0 1015440
12:00+22ююз456092 0.0 10151228
15:00+23юз45550 0.0 10151769
18:00+22з246863 0.0 1014225
21:00+16с2282100 0.0 101521
17 мая, пн
пн1700:00+15св338295 0.0 101638
03:00+14всв35897 0.1 101682
06:00+15всв388941 0.0 1016204
09:00+20в577531 0.0 1016493
12:00+25вюв566243 0.0 1015853
15:00+27юв475347 0.0 10141430
18:00+24вюв386684 0.0 1013214
21:00+18вюв4876100 0.0 1014116